When you browse on this site, cookies collect data to enhance your experience and personalize the content and advertising you see.
Visit our Privacy Policy to learn more. By continuing to use the site, you agree to this use of cookies and data.
  • In Hungary
  • List of Countries
  • For 7 days
  • Water Temperature
  • Satellite Maps
  • Weather Map
  • News
  • Weather Widgets
  • user-avatar
    Login

    Hourly Weather Agidel'

    Today, 19 January, Saturday

    Time Temperature Precipitation Wind Pressure Humidity
    00:00 -10°C° 0 mm 5 mps 752 mmHg 92%
    01:00 -11°C° 0 mm 5 mps 752 mmHg 93%
    02:00 -10°C° 0 mm 4 mps 752 mmHg 93%
    03:00 -10°C° 0 mm 4 mps 752 mmHg 94%
    04:00 -10°C° 0 mm 4 mps 752 mmHg 94%
    05:00 -10°C° 0 mm 4 mps 751 mmHg 94%
    06:00 -10°C° 0 mm 4 mps 751 mmHg 94%
    07:00 -10°C° 0 mm 4 mps 751 mmHg 94%
    08:00 -10°C° 0 mm 5 mps 751 mmHg 94%
    09:00 -10°C° 0 mm 5 mps 751 mmHg 94%
    10:00 -8°C° 0 mm 5 mps 751 mmHg 93%
    11:00 -9°C° 0.1 mm 6 mps 750 mmHg 92%
    12:00 -8°C° 0.1 mm 6 mps 750 mmHg 92%
    13:00 -6°C° 0.1 mm 6 mps 750 mmHg 91%
    14:00 -6°C° 0.1 mm 6 mps 749 mmHg 91%
    15:00 -6°C° 0.1 mm 6 mps 749 mmHg 91%
    16:00 -6°C° 0.1 mm 5 mps 749 mmHg 91%
    17:00 -6°C° 0 mm 5 mps 749 mmHg 91%
    18:00 -6°C° 0 mm 5 mps 749 mmHg 92%
    19:00 -6°C° 0 mm 5 mps 749 mmHg 92%
    20:00 -5°C° 0.1 mm 4 mps 749 mmHg 93%
    21:00 -5°C° 0.1 mm 4 mps 749 mmHg 94%
    22:00 -5°C° 0.1 mm 4 mps 749 mmHg 94%
    23:00 -4°C° 0.4 mm 4 mps 749 mmHg 95%

    Tomorrow, 20 January, Sunday

    Time Temperature Precipitation Wind Pressure Humidity
    00:00 -4°C° 0.4 mm 4 mps 749 mmHg 95%
    01:00 -4°C° 0.4 mm 3 mps 748 mmHg 96%
    02:00 -5°C° 0.5 mm 3 mps 749 mmHg 96%
    03:00 -5°C° 0.5 mm 3 mps 749 mmHg 96%
    04:00 -5°C° 0.5 mm 3 mps 749 mmHg 96%
    05:00 -7°C° 0.2 mm 3 mps 749 mmHg 94%
    06:00 -10°C° 0.2 mm 4 mps 749 mmHg 92%
    07:00 -12°C° 0.2 mm 4 mps 749 mmHg 90%
    08:00 -15°C° 0 mm 4 mps 750 mmHg 90%
    09:00 -17°C° 0 mm 4 mps 750 mmHg 91%
    10:00 -18°C° 0 mm 3 mps 751 mmHg 91%
    11:00 -17°C° 0 mm 3 mps 751 mmHg 92%
    12:00 -17°C° 0 mm 4 mps 752 mmHg 93%
    13:00 -17°C° 0 mm 4 mps 752 mmHg 94%
    14:00 -17°C° 0 mm 4 mps 753 mmHg 94%
    15:00 -15°C° 0 mm 3 mps 753 mmHg 94%
    16:00 -15°C° 0 mm 3 mps 753 mmHg 94%
    17:00 -16°C° 0 mm 3 mps 754 mmHg 95%
    18:00 -16°C° 0 mm 3 mps 754 mmHg 95%
    19:00 -17°C° 0 mm 3 mps 755 mmHg 96%
    20:00 -17°C° 0 mm 3 mps 755 mmHg 96%
    21:00 -18°C° 0 mm 3 mps 755 mmHg 96%
    22:00 -18°C° 0 mm 3 mps 755 mmHg 96%
    23:00 -17°C° 0 mm 3 mps 755 mmHg 96%

    Day after tomorrow, 21 January, Monday

    Time Temperature Precipitation Wind Pressure Humidity
    00:00 -16°C° 0 mm 3 mps 755 mmHg 95%
    01:00 -16°C° 0 mm 4 mps 755 mmHg 95%
    02:00 -16°C° 0 mm 4 mps 755 mmHg 94%
    03:00 -15°C° 0 mm 5 mps 755 mmHg 93%
    04:00 -15°C° 0 mm 5 mps 755 mmHg 92%
    05:00 -15°C° 0 mm 5 mps 755 mmHg 92%
    06:00 -15°C° 0 mm 5 mps 754 mmHg 92%
    07:00 -17°C° 0 mm 5 mps 754 mmHg 91%
    08:00 -16°C° 0 mm 6 mps 754 mmHg 91%
    09:00 -16°C° 0 mm 6 mps 754 mmHg 90%
    10:00 -16°C° 0 mm 6 mps 753 mmHg 90%
    11:00 -16°C° 0 mm 6 mps 753 mmHg 88%
    12:00 -15°C° 0 mm 6 mps 753 mmHg 87%
    13:00 -15°C° 0 mm 7 mps 753 mmHg 86%
    14:00 -14°C° 0.1 mm 7 mps 752 mmHg 86%
    15:00 -14°C° 0.1 mm 6 mps 752 mmHg 86%
    16:00 -14°C° 0.1 mm 6 mps 752 mmHg 86%
    17:00 -14°C° 0.1 mm 6 mps 752 mmHg 87%
    18:00 -14°C° 0.1 mm 6 mps 751 mmHg 88%
    19:00 -14°C° 0.1 mm 6 mps 751 mmHg 89%
    20:00 -14°C° 0.1 mm 6 mps 751 mmHg 89%
    21:00 -14°C° 0.1 mm 6 mps 751 mmHg 90%
    22:00 -14°C° 0.1 mm 6 mps 751 mmHg 90%
    23:00 -14°C° 0.1 mm 6 mps 751 mmHg 91%

    22 January, Tuesday

    Time Temperature Precipitation Wind Pressure Humidity
    00:00 -13°C° 0.1 mm 5 mps 751 mmHg 91%
    01:00 -13°C° 0.1 mm 5 mps 751 mmHg 92%
    02:00 -14°C° 0 mm 4 mps 751 mmHg 92%
    03:00 -15°C° 0 mm 4 mps 751 mmHg 93%
    04:00 -16°C° 0 mm 4 mps 751 mmHg 94%
    05:00 -17°C° 0 mm 4 mps 751 mmHg 95%
    06:00 -18°C° 0 mm 4 mps 752 mmHg 95%
    07:00 -18°C° 0 mm 4 mps 752 mmHg 95%
    08:00 -19°C° 0 mm 4 mps 752 mmHg 95%
    09:00 -20°C° 0 mm 4 mps 753 mmHg 95%
    10:00 -20°C° 0 mm 4 mps 753 mmHg 96%
    11:00 -20°C° 0 mm 4 mps 754 mmHg 94%
    12:00 -19°C° 0 mm 4 mps 754 mmHg 93%
    13:00 -19°C° 0 mm 4 mps 754 mmHg 91%
    14:00 -20°C° 0 mm 4 mps 755 mmHg 92%
    15:00 -22°C° 0 mm 4 mps 755 mmHg 93%
    16:00 -22°C° 0 mm 3 mps 756 mmHg 93%
    17:00 -23°C° 0 mm 3 mps 756 mmHg 94%
    18:00 -24°C° 0 mm 3 mps 757 mmHg 95%
    19:00 -26°C° 0 mm 3 mps 757 mmHg 96%
    20:00 -26°C° 0 mm 3 mps 758 mmHg 96%
    21:00 -27°C° 0 mm 3 mps 758 mmHg 97%
    22:00 -29°C° 0 mm 3 mps 759 mmHg 97%
    23:00 -28°C° 0 mm 2 mps 759 mmHg 97%

    23 January, Wednesday

    Time Temperature Precipitation Wind Pressure Humidity
    00:00 -28°C° 0 mm 2 mps 760 mmHg 98%
    01:00 -28°C° 0 mm 2 mps 760 mmHg 98%
    02:00 -29°C° 0 mm 2 mps 760 mmHg 98%
    03:00 -29°C° 0 mm 2 mps 761 mmHg 98%
    04:00 -29°C° 0 mm 2 mps 761 mmHg 98%
    05:00 -29°C° 0 mm 2 mps 761 mmHg 98%
    06:00 -29°C° 0 mm 2 mps 761 mmHg 98%
    07:00 -29°C° 0 mm 2 mps 762 mmHg 99%
    08:00 -29°C° 0 mm 2 mps 762 mmHg 98%
    09:00 -29°C° 0 mm 2 mps 762 mmHg 98%
    10:00 -28°C° 0 mm 2 mps 762 mmHg 97%
    11:00 -27°C° 0 mm 2 mps 762 mmHg 96%
    12:00 -25°C° 0 mm 2 mps 762 mmHg 96%
    13:00 -24°C° 0 mm 2 mps 762 mmHg 95%
    14:00 -24°C° 0 mm 2 mps 762 mmHg 95%
    15:00 -24°C° 0 mm 2 mps 762 mmHg 94%
    16:00 -24°C° 0 mm 2 mps 761 mmHg 94%
    17:00 -24°C° 0 mm 2 mps 761 mmHg 94%
    18:00 -25°C° 0 mm 3 mps 761 mmHg 93%
    19:00 -24°C° 0 mm 3 mps 761 mmHg 93%
    20:00 -23°C° 0 mm 2 mps 761 mmHg 93%
    21:00 -23°C° 0 mm 2 mps 761 mmHg 92%
    22:00 -23°C° 0 mm 2 mps 761 mmHg 92%
    23:00 -24°C° 0 mm 2 mps 761 mmHg 91%

    24 January, Thursday

    Time Temperature Precipitation Wind Pressure Humidity
    00:00 -24°C° 0 mm 2 mps 761 mmHg 91%
    01:00 -24°C° 0 mm 2 mps 761 mmHg 91%
    02:00 -25°C° 0 mm 2 mps 761 mmHg 91%
    03:00 -25°C° 0 mm 2 mps 761 mmHg 91%
    04:00 -25°C° 0 mm 2 mps 761 mmHg 92%
    05:00 -25°C° 0 mm 2 mps 761 mmHg 92%
    06:00 -25°C° 0 mm 2 mps 761 mmHg 93%
    07:00 -25°C° 0 mm 2 mps 761 mmHg 94%
    08:00 -25°C° 0 mm 2 mps 761 mmHg 94%
    09:00 -25°C° 0 mm 2 mps 761 mmHg 94%
    10:00 -24°C° 0 mm 2 mps 761 mmHg 94%
    11:00 -23°C° 0 mm 2 mps 761 mmHg 93%
    12:00 -23°C° 0 mm 3 mps 760 mmHg 92%
    13:00 -21°C° 0 mm 3 mps 760 mmHg 91%
    14:00 -21°C° 0 mm 3 mps 760 mmHg 92%
    15:00 -21°C° 0 mm 3 mps 760 mmHg 92%
    16:00 -21°C° 0 mm 3 mps 760 mmHg 92%
    17:00 -21°C° 0.1 mm 3 mps 760 mmHg 93%
    18:00 -21°C° 0.1 mm 3 mps 760 mmHg 94%
    19:00 -19°C° 0.1 mm 3 mps 760 mmHg 94%
    20:00 -21°C° 0 mm 3 mps 760 mmHg 95%
    21:00 -22°C° 0 mm 3 mps 761 mmHg 95%
    22:00 -23°C° 0 mm 3 mps 761 mmHg 96%
    23:00 -24°C° 0 mm 3 mps 761 mmHg 97%
    Show more